Location: Newark
(51.5700°N, 17.6700°E)
Time: 15:12:38
(UTC+00:00)

ISS - Visible Passes

Search period start: 09 December 2019 00:00
Search period end: 19 December 2019 00:00
Orbit: 411 x 421 km, 51.6° (Epoch: 10 December)

Date Brightness Start Highest point End Pass type
(mag) Time Alt. Az. Time Alt. Az. Time Alt. Az.
09 Dec -1.2 16:39:14 10° W 16:41:49 21° SW 16:44:23 10° SSE visible
10 Dec -1.7 15:50:33 10° W 15:53:30 29° SSW 15:56:26 10° SSE visible
12 Dec -0.6 15:50:54 10° WSW 15:52:55 15° SW 15:54:56 10° S visible
